Location: Kalberh�ni
(46.4610°N, 7.2453°E)
Time: 00:39:46
(UTC+00:00)

DNEPR-1 R/B - Pass Details

Date: 20 June 2021
Orbit: 588 x 1334 km, 64.6° (Epoch: 25 July)

Event Time Altitude Azimuth Distance (km) Brightness Sun altitude
Rises 20:33:23 0° 324° (NW) 2,842 9.3 -9.2°
Reaches altitude 10° 20:35:38 10° 328° (NNW) 1,923 7.7 -9.4°
Maximum altitude 20:39:50 65° 50° (NE) 663 3.7 -9.9°
Enters shadow 20:43:37 14° 132° (SE) 1,760 5.2 -10.3°
